This is the latest recevied weather packets stored in our database for station/object WA0LM. If no packets are shown the sender has not sent any weather packets the latest 10 day(s).
| Time | Temp. | Humidity | Pressure | Rain* | Wind** | Luminosity | Snow |
|---|---|---|---|---|---|---|---|
| 1777141026 | 7.78° C | 79% | 1016.2 hPa | 0.51 mm | - | 183 W/m² | - |
| 1777140724 | 8.33° C | 82% | 1016.2 hPa | 0.51 mm | - | 133 W/m² | - |
| 1777140419 | 8.33° C | 81% | 1016.2 hPa | 0 mm | - | 104 W/m² | - |
| 1777140118 | 8.33° C | 78% | 1016.2 hPa | 0 mm | - | 88 W/m² | - |
| 1777139815 | 8.33° C | 79% | 1016 hPa | 0 mm | - | 134 W/m² | - |
| 1777139511 | 8.33° C | 80% | 1016.2 hPa | 0 mm | - | 127 W/m² | - |
| 1777139211 | 8.33° C | 75% | 1016.1 hPa | 0 mm | - | 123 W/m² | - |
| 1777138909 | 8.33° C | 77% | 1016.1 hPa | 0 mm | - | 105 W/m² | - |
| 1777138605 | 8.33° C | 78% | 1016 hPa | 0 mm | - | 135 W/m² | - |
| 1777138301 | 8.89° C | 79% | 1016.1 hPa | 0 mm | - | 143 W/m² | - |
| 1777137997 | 8.89° C | 76% | 1016.1 hPa | 0 mm | - | 135 W/m² | - |
| 1777137693 | 8.89° C | 76% | 1016 hPa | 0 mm | - | 121 W/m² | - |
| 1777137390 | 8.89° C | 78% | 1015.9 hPa | 0 mm | - | 98 W/m² | - |
| 1777137086 | 8.89° C | 73% | 1016.1 hPa | 0 mm | - | 100 W/m² | - |
| 1777136784 | 8.89° C | 73% | 1016 hPa | 0 mm | - | 94 W/m² | - |
| 1777136481 | 8.89° C | 73% | 1015.9 hPa | 0 mm | - | 86 W/m² | - |
| 1777136178 | 8.89° C | 72% | 1015.9 hPa | 0 mm | - | 88 W/m² | - |
| 1777135874 | 9.44° C | 72% | 1015.9 hPa | 0 mm | - | 84 W/m² | - |
| 1777135570 | 9.44° C | 67% | 1015.8 hPa | 0 mm | - | 91 W/m² | - |
| 1777135267 | 9.44° C | 69% | 1015.7 hPa | 0 mm | - | 91 W/m² | - |
| 1777134964 | 9.44° C | 68% | 1015.7 hPa | 0 mm | - | 89 W/m² | - |
| 1777134661 | 9.44° C | 67% | 1015.5 hPa | 0 mm | - | 78 W/m² | - |
| 1777134356 | 9.44° C | 65% | 1015.5 hPa | 0 mm | - | 73 W/m² | - |
| 1777134054 | 10° C | 67% | 1015.8 hPa | 0 mm | - | 70 W/m² | - |
| 1777133750 | 10° C | 63% | 1015.4 hPa | 0 mm | - | 77 W/m² | - |
* Rain latest hour (hover to see other rain measurements)
** Current wind speed in m/s (hover to see current wind gust speed)